This is the latest recevied weather packets stored in our database for station/object N5JXS. If no packets are shown the sender has not sent any weather packets the latest 10 day(s).
| Time | Temp. | Humidity | Pressure | Rain* | Wind** | Luminosity | Snow |
|---|---|---|---|---|---|---|---|
| 1777883498 | 7.22° C | 42% | 1016.1 hPa | 0 mm | - | 0 W/m² | - |
| 1777883194 | 7.22° C | 45% | 1016.1 hPa | 0 mm | - | 0 W/m² | - |
| 1777882890 | 7.78° C | 42% | 1016.1 hPa | 0 mm | - | 0 W/m² | - |
| 1777882588 | 7.78° C | 42% | 1016.3 hPa | 0 mm | - | 0 W/m² | - |
| 1777882284 | 7.22° C | 44% | 1016.8 hPa | 0 mm | - | 0 W/m² | - |
| 1777881980 | 7.22° C | 42% | 1016.4 hPa | 0 mm | - | 0 W/m² | - |
| 1777881677 | 7.22° C | 43% | 1016.5 hPa | 0 mm | - | 0 W/m² | - |
| 1777881374 | 7.22° C | 42% | 1016.6 hPa | 0 mm | - | 0 W/m² | - |
| 1777881071 | 7.22° C | 42% | 1016.3 hPa | 0 mm | - | 0 W/m² | - |
| 1777880769 | 7.22° C | 42% | 1016.6 hPa | 0 mm | - | 0 W/m² | - |
| 1777880467 | 7.78° C | 42% | 1016.6 hPa | 0 mm | - | 0 W/m² | - |
| 1777880165 | 7.78° C | 41% | 1016.6 hPa | 0 mm | - | 0 W/m² | - |
| 1777879863 | 8.33° C | 40% | 1016.8 hPa | 0 mm | - | 0 W/m² | - |
| 1777879560 | 8.33° C | 41% | 1016.8 hPa | 0 mm | - | 0 W/m² | - |
| 1777879257 | 7.78° C | 41% | 1016.6 hPa | 0 mm | - | 0 W/m² | - |
| 1777878954 | 7.78° C | 41% | 1016.9 hPa | 0 mm | - | 0 W/m² | - |
| 1777878651 | 7.78° C | 42% | 1016.9 hPa | 0 mm | - | 0 W/m² | - |
| 1777878349 | 7.78° C | 42% | 1016.9 hPa | 0 mm | - | 0 W/m² | - |
| 1777878044 | 7.78° C | 42% | 1016.6 hPa | 0 mm | - | 0 W/m² | - |
| 1777877740 | 7.78° C | 42% | 1017 hPa | 0 mm | - | 0 W/m² | - |
| 1777877438 | 7.78° C | 42% | 1016.9 hPa | 0 mm | - | 0 W/m² | - |
| 1777877135 | 7.78° C | 43% | 1017.3 hPa | 0 mm | - | 0 W/m² | - |
| 1777876832 | 7.78° C | 42% | 1017 hPa | 0 mm | - | 0 W/m² | - |
| 1777876530 | 7.78° C | 42% | 1017.3 hPa | 0 mm | - | 0 W/m² | - |
| 1777876227 | 8.33° C | 44% | 1017.1 hPa | 0 mm | - | 0 W/m² | - |
* Rain latest hour (hover to see other rain measurements)
** Current wind speed in m/s (hover to see current wind gust speed)